EW1734 Weather Reports


Display with metric or nautical units.
time (UTC)temp
F
wind
direction
speed
MPH
gust
MPH
rain 1hr
in
rain 24hr
in
rain mn
in
humidity
%
barometer
mb
20260502170243 62 190 2.0 3.0 0.00 0.00 0.00 81 1015.2
20260502164231 62 73 3.0 3.0 0.00 0.00 0.00 82 1015.1
20260502163726 61 38 0.0 2.0 0.00 0.00 0.00 84 1015.2
20260502163223 61 254 1.0 2.0 0.00 0.00 0.00 83 1015.3
20260502162719 60 129 0.0 1.0 0.00 0.00 0.00 85 1015.3
20260502162216 59 76 3.0 4.0 0.00 0.00 0.00 87 1015.3
20260502161713 59 87 2.0 3.0 0.00 0.00 0.00 88 1015.1
20260502161210 59 115 4.0 5.0 0.00 0.00 0.00 88 1015.2
20260502160708 58 148 0.0 4.0 0.00 0.00 0.00 89 1015.1
20260502160207 58 58 3.0 4.0 0.00 0.00 0.00 90 1014.9
20260502152120 57 72 2.0 5.0 0.00 0.00 0.00 92 1014.7
20260502151617 57 72 2.0 3.0 0.00 0.00 0.00 92 1014.8
20260502151115 57 114 2.0 3.0 0.00 0.00 0.00 92 1014.6
20260502150612 57 136 1.0 3.0 0.00 0.00 0.00 92 1014.4
20260502150108 57 55 3.0 5.0 0.00 0.00 0.00 92 1014.8
20260502130457 52 82 1.0 2.0 0.00 0.00 0.00 92 1014.1
20260502123440 52 47 2.0 3.0 0.00 0.00 0.00 90 1013.8
20260502122937 52 114 1.0 2.0 0.00 0.00 0.00 90 1013.8
20260502122433 53 58 2.0 3.0 0.00 0.00 0.00 90 1013.6
20260502121931 53 113 0.0 2.0 0.00 0.00 0.00 91 1013.6
20260502121428 53 83 2.0 3.0 0.00 0.00 0.00 91 1013.5
20260502120926 53 33 1.0 2.0 0.00 0.00 0.00 91 1013.6
20260502120422 53 35 3.0 4.0 0.00 0.00 0.00 91 1013.7
20260502115919 53 72 1.0 2.0 0.00 0.00 0.00 91 1013.8
20260502115416 53 88 2.0 3.0 0.00 0.00 0.00 91 1013.6
20260502114912 53 87 1.0 2.0 0.00 0.00 0.00 91 1013.6
20260502114409 53 89 0.0 2.0 0.00 0.00 0.00 91 1013.5
20260502113906 54 78 1.0 2.0 0.00 0.00 0.00 90 1013.5
20260502113404 54 75 1.0 1.0 0.00 0.00 0.00 90 1013.5
20260502112902 54 76 2.0 2.0 0.00 0.00 0.00 90 1013.2
20260502112359 54 40 2.0 3.0 0.00 0.00 0.00 91 1013.4
20260502111856 54 38 1.0 2.0 0.00 0.00 0.00 91 1013.3
20260502111354 54 89 1.0 3.0 0.00 0.00 0.00 90 1013.2
20260502110851 54 44 0.0 1.0 0.00 0.00 0.00 90 1013.3
20260502110349 54 107 0.0 1.0 0.00 0.00 0.00 90 1013.0
20260502105846 54 84 0.0 1.0 0.00 0.00 0.00 89 1013.1
20260502105343 55 103 0.0 1.0 0.00 0.00 0.00 89 1013.1
20260502104841 55 36 0.0 3.0 0.00 0.00 0.00 89 1013.2
20260502104338 55 18 2.0 4.0 0.00 0.00 0.00 89 1013.1
20260502103835 55 87 0.0 3.0 0.00 0.00 0.00 89 1013.2
20260502103332 55 48 2.0 2.0 0.00 0.00 0.00 89 1013.3
20260502102830 55 25 0.0 2.0 0.00 0.00 0.00 89 1013.3
20260502102326 55 13 1.0 2.0 0.00 0.00 0.00 89 1013.2
20260502101824 55 73 0.0 2.0 0.00 0.00 0.00 88 1013.1
20260502101322 55 359 2.0 4.0 0.00 0.00 0.00 88 1013.3
20260502100820 55 12 3.0 3.0 0.00 0.00 0.00 89 1013.2
20260502100319 55 31 1.0 2.0 0.00 0.00 0.00 89 1013.1
20260502091252 55 49 0.0 4.0 0.00 0.00 0.00 87 1013.6
20260502090750 55 64 0.0 2.0 0.00 0.00 0.00 87 1013.6
20260502090246 55 304 0.0 3.0 0.00 0.00 0.00 87 1013.5
20260502071147 57 66 1.0 2.0 0.00 0.00 0.00 84 1014.1
20260502070645 57 89 0.0 3.0 0.00 0.00 0.00 84 1014.3
20260502070143 57 18 2.0 3.0 0.00 0.00 0.00 83 1014.2
20260502065641 57 56 1.0 2.0 0.00 0.00 0.00 83 1014.2
20260502065138 57 24 2.0 2.0 0.00 0.00 0.00 83 1014.1
20260502064637 57 3 2.0 3.0 0.00 0.00 0.00 83 1014.2
20260502064134 58 18 1.0 2.0 0.00 0.00 0.00 83 1014.1
20260502063631 58 40 1.0 2.0 0.00 0.00 0.00 83 1014.0
20260502063129 58 76 1.0 2.0 0.00 0.00 0.00 82 1014.1
20260502062626 58 72 1.0 2.0 0.00 0.00 0.00 81 1014.2
20260502062123 58 298 2.0 2.0 0.00 0.00 0.00 82 1013.9
20260502061622 58 59 1.0 2.0 0.00 0.00 0.00 82 1013.9
20260502061119 59 51 2.0 3.0 0.00 0.00 0.00 82 1013.8
20260502060619 59 48 1.0 2.0 0.00 0.00 0.00 82 1013.9
20260502060116 59 43 0.0 2.0 0.00 0.00 0.00 81 1014.0
20260502055614 59 89 2.0 2.0 0.00 0.00 0.00 81 1013.9
20260502055112 59 37 2.0 3.0 0.00 0.00 0.00 80 1014.0
20260502054610 60 79 1.0 2.0 0.00 0.00 0.00 80 1013.9
20260502054107 60 47 2.0 2.0 0.00 0.00 0.00 80 1013.8
20260502053604 60 38 1.0 2.0 0.00 0.00 0.00 80 1014.0
20260502053101 60 83 1.0 2.0 0.00 0.00 0.00 81 1014.0
20260502052600 60 85 1.0 2.0 0.00 0.00 0.00 80 1013.8
20260502052058 60 85 1.0 2.0 0.00 0.00 0.00 80 1013.8
20260502051555 60 79 1.0 2.0 0.00 0.00 0.00 78 1013.8
20260502051053 60 84 0.0 2.0 0.00 0.00 0.00 77 1013.8
20260502050549 60 79 1.0 2.0 0.00 0.00 0.00 76 1013.8
20260502050046 60 89 2.0 2.0 0.00 0.00 0.00 75 1013.9
20260502045543 61 76 1.0 2.0 0.00 0.00 0.00 76 1013.9
20260502045040 61 28 1.0 2.0 0.00 0.00 0.00 76 1013.6
20260502044536 61 89 0.0 1.0 0.00 0.00 0.00 76 1013.6
20260502044033 62 83 0.0 2.0 0.00 0.00 0.00 77 1013.6
20260502043531 62 8 0.0 0.0 0.00 0.00 0.00 78 1013.4
20260502043026 62 48 0.0 1.0 0.00 0.00 0.00 76 1013.4
20260502042522 63 65 1.0 1.0 0.00 0.00 0.00 75 1013.5
20260502042020 63 45 2.0 2.0 0.00 0.00 0.00 75 1013.2
20260502041517 63 22 2.0 2.0 0.00 0.00 0.00 74 1013.2
20260502041014 63 334 1.0 2.0 0.00 0.00 0.00 74 1013.1
20260502040510 64 37 0.0 2.0 0.00 0.00 0.00 74 1013.0
20260502040008 64 43 3.0 4.0 0.00 0.00 0.00 73 1012.9
20260502035503 64 35 2.0 2.0 0.00 0.00 0.00 73 1012.9
20260502035001 64 328 0.0 2.0 0.00 0.00 0.00 73 1012.6
20260502034459 64 55 0.0 2.0 0.00 0.00 0.00 73 1012.5
20260502033957 64 337 0.0 2.0 0.00 0.00 0.00 73 1012.3
20260502033455 64 47 0.0 1.0 0.00 0.00 0.00 73 1012.3
20260502032951 64 55 0.0 1.0 0.00 0.00 0.00 73 1012.2
20260502032448 65 86 0.0 1.0 0.00 0.00 0.00 72 1012.1
20260502031944 65 345 2.0 3.0 0.00 0.00 0.00 72 1012.3
20260502031443 65 24 1.0 2.0 0.00 0.00 0.00 71 1012.2
20260502030941 66 2 1.0 2.0 0.00 0.00 0.00 71 1012.0
20260502030439 66 21 0.0 2.0 0.00 0.00 0.00 70 1012.2
20260502025936 66 296 0.0 3.0 0.00 0.00 0.00 70 1012.1
20260502025433 66 354 1.0 2.0 0.00 0.00 0.00 69 1012.0
20260502024931 67 51 1.0 2.0 0.00 0.00 0.00 69 1012.0
20260502024429 67 52 1.0 1.0 0.00 0.00 0.00 69 1011.9
20260502023927 67 339 0.0 2.0 0.00 0.00 0.00 68 1011.9
20260502023424 67 18 2.0 2.0 0.00 0.00 0.00 68 1011.9
20260502022922 68 336 1.0 2.0 0.00 0.00 0.00 67 1012.0
20260502022418 68 9 2.0 2.0 0.00 0.00 0.00 66 1012.0
20260502021915 69 0 0.0 2.0 0.00 0.00 0.00 65 1011.7
20260502021412 69 232 1.0 2.0 0.00 0.00 0.00 64 1011.8
20260502020909 69 357 2.0 2.0 0.00 0.00 0.00 64 1011.8
20260502020408 70 235 2.0 3.0 0.00 0.00 0.00 63 1011.7
20260502015904 70 55 1.0 2.0 0.00 0.00 0.00 63 1011.7
20260502015401 71 282 1.0 2.0 0.00 0.00 0.00 62 1011.6
20260502014858 71 348 1.0 3.0 0.00 0.00 0.00 61 1011.6
20260502014355 71 185 2.0 2.0 0.00 0.00 0.00 61 1011.6
20260502013851 72 29 0.0 4.0 0.00 0.00 0.00 61 1011.6
20260502013346 72 56 1.0 2.0 0.00 0.00 0.00 59 1011.6
20260502012843 73 234 1.0 1.0 0.00 0.00 0.00 59 1011.5
20260502012342 73 296 2.0 4.0 0.00 0.00 0.00 59 1011.5
20260502011838 73 284 0.0 3.0 0.00 0.00 0.00 58 1011.7
20260502011334 73 23 2.0 3.0 0.00 0.00 0.00 58 1011.6
20260502010832 73 258 2.0 4.0 0.00 0.00 0.00 57 1011.6
20260502010328 74 226 1.0 3.0 0.00 0.00 0.00 57 1011.7
20260502005825 74 321 1.0 3.0 0.00 0.00 0.00 58 1011.6
20260502005323 73 353 1.0 3.0 0.00 0.00 0.00 57 1011.6
20260502004820 74 39 2.0 4.0 0.00 0.00 0.00 56 1011.7
20260502004316 74 348 3.0 4.0 0.00 0.00 0.00 57 1011.8
20260502003814 75 47 2.0 4.0 0.00 0.00 0.00 56 1011.7
20260502003311 75 297 4.0 4.0 0.00 0.00 0.00 55 1011.6
20260502002807 76 326 2.0 4.0 0.00 0.00 0.00 54 1011.7
20260502002306 77 323 2.0 5.0 0.00 0.00 0.00 53 1011.6
20260502001802 77 351 3.0 6.0 0.00 0.00 0.00 53 1011.6
20260502001300 79 279 4.0 4.0 0.00 0.00 0.00 50 1011.5
20260502000757 79 297 1.0 3.0 0.00 0.00 0.00 50 1011.5
20260502000255 79 343 2.0 6.0 0.00 0.00 0.00 49 1011.6
20260501235755 79 297 3.0 4.0 0.00 0.00 0.00 49 1011.6
20260501235252 80 266 6.0 6.0 0.00 0.00 0.00 48 1011.4
20260501234747 80 252 1.0 4.0 0.00 0.00 0.00 48 1011.5
20260501234245 80 273 3.0 4.0 0.00 0.00 0.00 49 1011.4
20260501233743 80 286 3.0 5.0 0.00 0.00 0.00 48 1011.6
20260501233240 80 18 2.0 6.0 0.00 0.00 0.00 48 1011.6
20260501232735 82 9 2.0 5.0 0.00 0.00 0.00 46 1011.4
20260501232233 83 303 1.0 5.0 0.00 0.00 0.00 45 1011.3
20260501231731 83 313 2.0 5.0 0.00 0.00 0.00 45 1011.4
20260501231229 84 233 4.0 4.0 0.00 0.00 0.00 44 1011.4
20260501230727 83 349 0.0 5.0 0.00 0.00 0.00 44 1011.6
20260501230225 84 286 2.0 4.0 0.00 0.00 0.00 44 1011.4
20260501225722 83 278 2.0 6.0 0.00 0.00 0.00 44 1011.4
20260501225219 85 278 2.0 3.0 0.00 0.00 0.00 43 1011.3
20260501224715 84 297 2.0 3.0 0.00 0.00 0.00 44 1011.5
20260501224213 83 318 3.0 7.0 0.00 0.00 0.00 45 1011.6
20260501223709 83 347 2.0 6.0 0.00 0.00 0.00 45 1011.6
20260501223206 84 315 2.0 4.0 0.00 0.00 0.00 44 1011.7
20260501222702 84 294 3.0 5.0 0.00 0.00 0.00 45 1011.9
20260501222159 84 256 2.0 3.0 0.00 0.00 0.00 44 1012.0
20260501221655 84 226 2.0 4.0 0.00 0.00 0.00 45 1012.0
20260501221153 84 340 2.0 4.0 0.00 0.00 0.00 45 1012.1
20260501220650 84 313 3.0 5.0 0.00 0.00 0.00 45 1012.1
20260501220147 84 299 1.0 7.0 0.00 0.00 0.00 45 1012.2
20260501215644 84 305 2.0 6.0 0.00 0.00 0.00 45 1012.3
20260501215140 84 7 0.0 3.0 0.00 0.00 0.00 45 1012.4
20260501214634 85 300 2.0 3.0 0.00 0.00 0.00 44 1012.3
20260501214130 84 339 2.0 3.0 0.00 0.00 0.00 45 1012.3
20260501213628 84 252 0.0 3.0 0.00 0.00 0.00 45 1012.5
20260501213123 83 273 3.0 8.0 0.00 0.00 0.00 46 1012.6
20260501212621 83 202 1.0 7.0 0.00 0.00 0.00 46 1012.4
20260501212117 82 356 3.0 6.0 0.00 0.00 0.00 47 1012.4
20260501211613 82 226 3.0 4.0 0.00 0.00 0.00 46 1012.9
20260501211112 82 224 4.0 5.0 0.00 0.00 0.00 46 1012.7
20260501210608 82 242 3.0 6.0 0.00 0.00 0.00 48 1012.6
20260501210105 82 299 1.0 4.0 0.00 0.00 0.00 47 1012.6
20260501205601 81 224 3.0 7.0 0.00 0.00 0.00 48 1012.9
20260501205059 81 297 1.0 4.0 0.00 0.00 0.00 47 1013.0
20260501204555 81 293 3.0 6.0 0.00 0.00 0.00 49 1013.0
20260501204051 81 255 2.0 6.0 0.00 0.00 0.00 49 1013.0
20260501203547 81 359 2.0 3.0 0.00 0.00 0.00 48 1013.1
20260501203045 80 204 2.0 5.0 0.00 0.00 0.00 49 1013.0
20260501202542 78 78 1.0 2.0 0.00 0.00 0.00 52 1013.1
20260501202039 77 202 5.0 5.0 0.00 0.00 0.00 52 1013.3
20260501201536 77 185 3.0 4.0 0.00 0.00 0.00 52 1013.3
20260501201032 77 181 5.0 6.0 0.00 0.00 0.00 53 1013.4
20260501200529 76 204 4.0 6.0 0.00 0.00 0.00 54 1013.3
20260501200027 75 112 0.0 2.0 0.00 0.00 0.00 54 1013.3
20260501195524 75 177 2.0 3.0 0.00 0.00 0.00 55 1013.5
20260501195019 74 142 4.0 4.0 0.00 0.00 0.00 56 1013.7
20260501194515 74 180 3.0 4.0 0.00 0.00 0.00 56 1013.6
20260501194011 74 192 3.0 5.0 0.00 0.00 0.00 56 1013.7
20260501193509 74 183 3.0 5.0 0.00 0.00 0.00 57 1013.6
20260501193007 73 189 2.0 4.0 0.00 0.00 0.00 58 1013.8
20260501192504 72 229 2.0 4.0 0.00 0.00 0.00 59 1013.9
20260501192001 72 237 4.0 5.0 0.00 0.00 0.00 59 1013.8
20260501191458 72 197 1.0 3.0 0.00 0.00 0.00 60 1014.1
20260501190955 73 205 0.0 3.0 0.00 0.00 0.00 58 1014.2
20260501190451 74 206 1.0 3.0 0.00 0.00 0.00 58 1014.1
20260501185946 73 221 1.0 3.0 0.00 0.00 0.00 59 1014.4
20260501185443 72 188 2.0 2.0 0.00 0.00 0.00 59 1014.4
20260501184939 71 167 0.0 3.0 0.00 0.00 0.00 62 1014.5
20260501184436 70 185 4.0 6.0 0.00 0.00 0.00 62 1014.5
20260501183930 71 225 2.0 4.0 0.00 0.00 0.00 61 1014.5
20260501183428 71 353 3.0 4.0 0.00 0.00 0.00 62 1014.7
20260501182924 70 186 1.0 4.0 0.00 0.00 0.00 63 1014.6
20260501182421 69 162 1.0 5.0 0.00 0.00 0.00 64 1014.8
20260501181917 69 133 1.0 5.0 0.00 0.00 0.00 65 1014.8
20260501181415 68 100 3.0 7.0 0.00 0.00 0.00 66 1014.8
20260501180912 68 35 5.0 6.0 0.00 0.00 0.00 66 1014.8
20260501180409 68 134 3.0 4.0 0.00 0.00 0.00 66 1015.0
20260501175905 66 37 0.0 7.0 0.00 0.00 0.00 69 1015.0
20260501175402 67 77 1.0 4.0 0.00 0.00 0.00 69 1015.1
20260501174859 67 153 0.0 7.0 0.00 0.00 0.00 68 1015.2
20260501174356 67 238 1.0 3.0 0.00 0.00 0.00 68 1015.1
20260501173854 67 134 0.0 4.0 0.00 0.00 0.00 68 1015.3
20260501173351 67 17 1.0 3.0 0.00 0.00 0.00 67 1015.3
20260501172847 66 50 0.0 4.0 0.00 0.00 0.00 70 1015.2
20260501172342 66 31 1.0 3.0 0.00 0.00 0.00 69 1015.3
20260501171838 67 62 2.0 4.0 0.00 0.00 0.00 69 1015.3
20260501171335 64 31 1.0 4.0 0.00 0.00 0.00 73 1015.3